SB KEPS @ AMSAT $ORB13255.N 2Line Orbital Elements 13255.AMSAT
HR AMSAT ORBITAL ELEMENTS FOR AMATEUR SATELLITES IN NASA FORMAT FROM WA5QGD FORT WORTH,TX September 12, 2013 BID: ORB13255.N
DECODE 2-LINE ELSETS WITH THE FOLLOWING KEY: 1 AAAAAU 00 0 0 BBBBB.BBBBBBBB .CCCCCCCC 00000-0 00000-0 0 DDDZ 2 AAAAA EEE.EEEE FFF.FFFF GGGGGGG HHH.HHHH III.IIII JJ.JJJJJJJJKKKKKZ KEY: A-CATALOGNUM B-EPOCHTIME C-DECAY D-ELSETNUM E-INCLINATION F-RAAN G-ECCENTRICITY H-ARGPERIGEE I-MNANOM J-MNMOTION K-ORBITNUM Z-CHECKSUM
TO ALL RADIO AMATEURS BT
AO-07 1 07530U 74089B 13255.51589744 -.00000028 00000-0 91780-4 0 7754 2 07530 101.4404 241.8776 0012317 116.2999 039.4778 12.53598152776725 FO-29 1 24278U 96046B 13254.74297939 .00000010 00000-0 49548-4 0 1978 2 24278 098.5457 301.6933 0349499 299.9056 170.2427 13.53005152843010 SO-33 1 25509U 98061B 13254.54205523 .00000494 00000-0 83839-4 0 5815 2 25509 031.4339 298.6696 0351235 193.9814 323.8264 14.29120366777256 RS-22 1 27939U 03042A 13255.77193726 .00000531 00000-0 10840-3 0 7619 2 27939 097.8002 079.0596 0012010 270.9174 089.0646 14.64565303532110 VO-52 1 28650U 05017B 13255.70729764 .00000967 00000-0 12128-3 0 5245 2 28650 097.5669 269.8223 0025112 356.1115 054.3366 14.84115707452062 HO-68 1 36122U 09072B 13255.68588993 -.00000044 00000-0 00000+0 0 8980 2 36122 100.2954 310.4892 0007817 152.5285 207.6225 13.16306619179923 UO-11 1 14781U 84021B 13255.13134353 .00000411 00000-0 59830-4 0 2825 2 14781 097.8939 315.1613 0008684 015.8865 344.2618 14.81003290586800 AO-16 1 20439U 90005D 13255.83055627 .00000058 00000-0 37498-4 0 8395 2 20439 098.4764 193.8443 0009761 257.2386 160.0840 14.32203816234789 LO-19 1 20442U 90005G 13254.87409648 .00000063 00000-0 38944-4 0 7750 2 20442 098.4460 194.4204 0010790 249.5723 146.5090 14.32412573234846 AO-27 1 22825U 93061C 13255.83150547 .00000053 00000-0 38044-4 0 4780 2 22825 098.6252 198.9571 0008932 038.7721 014.2946 14.29588493 41153 IO-26 1 22826U 93061D 13255.47592404 .00000067 00000-0 43112-4 0 2339 2 22826 098.6194 198.8741 0009339 032.7600 082.5473 14.29875274 41237 GO-32 1 25397U 98043D 13255.50967777 .00000015 00000-0 24803-4 0 1601 2 25397 098.4260 219.5141 0002189 072.3265 045.1996 14.23358252788366 NO-44 1 26931U 01043C 13254.77713235 .00000043 00000-0 48618-4 0 4161 2 26931 067.0535 036.2840 0007664 268.1557 195.5954 14.29956529623808 SO-50 1 27607U 02058C 13255.82063815 .00000789 00000-0 12080-3 0 1682 2 27607 064.5587 357.3366 0036203 132.1673 228.3005 14.73068434576625 CO-55 1 27844U 03031E 13254.79933878 .00000171 00000-0 98746-4 0 7389 2 27844 098.7026 262.6180 0009532 006.6176 077.3640 14.21265902529037 CO-57 1 27848U 03031J 13255.02304081 .00000156 00000-0 92359-4 0 6834 2 27848 098.7114 262.3973 0009541 012.1299 047.0324 14.20985931528991 AO-51 1 28375U 04025K 13255.52935036 .00000123 00000-0 49188-4 0 6521 2 28375 098.2111 207.5250 0084719 111.7583 339.8658 14.41156626483918 CP3 1 31129U 07012N 13254.70444258 .00000406 00000-0 10071-3 0 5511 2 31129 097.9055 242.4962 0100888 157.4195 257.8308 14.53793334339560 CO-65 1 32785U 08021C 13255.14584831 .00000857 00000-0 10885-3 0 7359 2 32785 097.7424 310.1679 0014425 028.5287 351.2879 14.84094083290776 PRISM 1 33493U 09002B 13255.87126607 .00001675 00000-0 19588-3 0 1722 2 33493 098.2283 055.7767 0016761 268.3323 091.5975 14.86441395250942 SOHLA-1 1 33496U 09002E 13255.10139034 .00000268 00000-0 52694-4 0 1452 2 33496 098.1437 010.9365 0007316 055.3034 357.0552 14.70364629248643 SO-67 1 35870U 09049F 13255.75114175 .00003476 00000-0 13003-3 0 4199 2 35870 097.1863 281.3944 0003151 050.6143 039.2304 15.27956169221624 TISAT-1 1 36799U 10035E 13255.73487524 .00001248 00000-0 15770-3 0 4408 2 36799 098.0322 340.9484 0015477 139.8100 220.4259 14.83632703171558 STUDSAT 1 36801U 10035G 13254.20429457 .00005842 00000-0 62058-3 0 6793 2 36801 098.0430 343.3932 0012616 125.6238 295.0896 14.89355730171513 ALMASAT-1 1 38078U 12006B 13255.68344730 .00014226 00000-0 35279-3 0 6054 2 38078 069.4766 357.3452 0678726 034.4008 329.9168 14.28664655 81723 XATCOBEO 1 38082U 12006F 13255.58026130 .00049572 35044-5 88589-3 0 4894 2 38082 069.4734 321.7734 0531255 014.7649 346.8317 14.66709925 82691 SOMP 1 39135U 13015F 13255.54791205 .00001913 00000-0 16291-3 0 3079 2 39135 064.8772 294.1355 0003276 220.8989 290.6087 15.00819001 21934 CUBEBUG-1 1 39153U 13018D 13255.82695306 .00000663 00000-0 10221-3 0 4000 2 39153 098.0681 331.5558 0018752 158.3128 201.8854 14.76597976 20614 ESTCUBE-1 1 39161U 13021C 13255.75675470 .00000573 00000-0 10597-3 0 3594 2 39161 098.1263 333.5399 0009266 188.2912 171.8138 14.69101402 18859 NOAA-10 1 16969U 86073A 13255.15945340 .00000067 00000-0 44698-4 0 4939 2 16969 098.5409 281.0825 0011744 356.0359 043.9531 14.27662803404352 NOAA-11 1 19531U 88089A 13255.35004943 .00000027 00000-0 36076-4 0 5076 2 19531 098.7066 336.3091 0011202 018.5735 023.3144 14.15027249288456 NOAA-12 1 21263U 91032A 13255.51292640 .00000041 00000-0 35801-4 0 9710 2 21263 098.6928 280.1874 0013012 329.4297 189.4462 14.25584906160994 MET-3/5 1 21655U 91056A 13255.46053535 .00000229 00000-0 56181-3 0 7824 2 21655 082.5591 192.6317 0011995 271.6986 088.2763 13.17047409 61427 MET-2/21 1 22782U 93055A 13254.84267846 .00000048 00000-0 30418-4 0 8411 2 22782 082.5508 034.1534 0021387 328.4234 195.9357 13.83711938 11621 OKEAN-4 1 23317U 94066A 13255.48290007 .00000617 00000-0 69955-4 0 3218 2 23317 082.5409 328.0839 0019481 298.5711 138.9284 14.84625667 21899 NOAA-14 1 23455U 94089A 13255.32181692 -.00000076 00000-0 -17115-4 0 4503 2 23455 098.7994 338.4253 0010585 110.1228 291.6783 14.13920603964687 NOAA-15 1 25338U 98030A 13255.49976580 .00000116 00000-0 68166-4 0 8713 2 25338 098.7324 245.2633 0009863 229.7242 291.0592 14.25263554797283 RESURS 1 25394U 98043A 13254.83530346 -.00000006 00000-0 15432-4 0 4670 2 25394 098.3725 226.5630 0001670 046.2467 012.4384 14.24335181788698 FENGYUN1 1 25730U 99025A 13255.84375819 .00000869 00000-0 50995-3 0 9627 2 25730 098.8861 214.3125 0025590 160.2308 229.1837 14.10642184738403 OKEAN-0 1 25860U 99039A 13255.84150490 .00000286 00000-0 50275-4 0 459 2 25860 098.0012 217.1680 0001189 132.8561 257.2068 14.74691911761279 NOAA-16 1 26536U 00055A 13255.45422707 .00000121 00000-0 89748-4 0 3593 2 26536 099.0335 309.0447 0009793 246.0279 241.8370 14.12915029668894 NOAA-17 1 27453U 02032A 13255.46220861 .00000112 00000-0 65744-4 0 2686 2 27453 098.3131 264.9171 0010504 268.1445 264.1043 14.24617206583142 NOAA-18 1 28654U 05018A 13255.46673325 .00000213 00000-0 14178-3 0 7540 2 28654 099.1106 224.9829 0013635 327.3733 140.6059 14.11860975428376 NOAA-19 1 33591U 09005A 13255.49660042 .00000006 00000-0 27524-4 0 9341 2 33591 098.9096 196.8972 0014126 179.0013 243.8648 14.11549104236816 HUBBLE 1 20580U 90037B 13255.80453941 .00001296 00000-0 79584-4 0 3308 2 20580 028.4706 058.3235 0002842 203.6773 256.1443 15.03914491 82893 ISS 1 25544U 98067A 13255.86496530 .00006562 00000-0 12062-3 0 5817 2 25544 051.6510 033.8567 0004029 057.7325 078.3345 15.50531591848304 CO-58 1 28895U 05043F 13255.04993072 .00000380 00000-0 85815-4 0 5701 2 28895 097.8593 106.0934 0018166 164.0791 196.0985 14.61223612419626 FALCON 1 30776U 07006E 13255.49313946 .00004522 00000-0 26476-3 0 6955 2 30776 035.4314 026.0688 0001421 330.2528 108.7945 15.11370477358631 MAST 1 31126U 07012K 13255.78434313 .00000290 00000-0 73977-4 0 8517 2 31126 097.8884 246.7416 0094375 139.0596 301.6186 14.54664375340052 CAPE1 1 31130U 07012P 13254.71265853 .00000407 00000-0 10107-3 0 8521 2 31130 097.9063 242.1237 0101274 158.4334 202.1176 14.53608723339348 COMPASS 1 32787U 08021E 13255.15374741 .00001504 00000-0 17861-3 0 7271 2 32787 097.7437 311.4396 0014623 024.1287 336.0611 14.85840832290872 AAUSAT2 1 32788U 08021F 13255.13448032 .00001847 00000-0 21538-3 0 7091 2 32788 097.7446 312.1221 0014105 023.5223 336.6635 14.86329423290912 DO-64 1 32789U 08021G 13255.75175762 .00002540 00000-0 27398-3 0 7414 2 32789 097.7609 317.0353 0013307 013.6798 082.0439 14.89215577291152 CO-66 1 32791U 08021J 13255.78906271 .00001022 00000-0 12607-3 0 7058 2 32791 097.7436 311.3025 0015130 023.5151 042.2254 14.84915867290870 RS-30 1 32953U 08025A 13255.79198082 .00000010 00000-0 00000+0 0 2091 2 32953 082.5061 013.7053 0019134 044.3450 315.9160 12.43036938240799 METEOR-M 1 35865U 09049A 13255.76460796 -.00000035 00000-0 35930-5 0 8027 2 35865 098.5939 305.9989 0002322 156.1366 203.9919 14.21892201206913 RS-38 1 35869U 09049E 13255.78265086 .00000010 00000-0 23991-4 0 7550 2 35869 098.5845 305.9045 0004674 164.8435 195.2870 14.22143754206946 JUGNU 1 37839U 11058B 13255.08679056 .00000380 00000-0 61042-4 0 4614 2 37839 019.9611 140.2334 0019087 160.4561 349.9494 14.12179382 99192 SRMSAT 1 37841U 11058D 13254.82180198 .00000359 00000-0 52824-4 0 4616 2 37841 019.9714 155.6101 0012015 107.7176 311.5821 14.10245954 99018 RAX-2 1 37853U 11061D 13255.68395892 .00002639 00000-0 20377-3 0 5922 2 37853 101.6994 149.8780 0233144 136.4254 279.9649 14.84234756101425 AUBIESAT 1 37854U 11061E 13255.27203273 .00003954 00000-0 29359-3 0 5828 2 37854 101.7030 150.3295 0232865 135.9554 345.0875 14.85008312101381 HRBE 1 37855U 11061F 13254.67849758 .00002836 00000-0 21495-3 0 5872 2 37855 101.7030 149.1527 0233953 138.2813 278.2179 14.84636974101282 RS-39 1 38051U 11062C 13255.88965115 .00011227 00000-0 33621-3 0 7861 2 38051 051.6348 146.5149 0010258 216.7196 220.8334 15.34957600 91242 E-STAR 1 38079U 12006C 13255.63217211 .00044742 33121-5 87025-3 0 4418 2 38079 069.4748 331.5415 0579718 020.3038 123.8929 14.54800204 82420 GOLIAT 1 38085U 12006J 13255.61392506 .00036612 31878-5 72894-3 0 3729 2 38085 069.4766 334.5035 0589653 021.8573 340.6694 14.52314782 82345 HORYU-2 1 38340U 12025D 13255.10017094 .00000980 00000-0 16742-3 0 6083 2 38340 098.2248 203.5488 0012779 344.3559 015.7271 14.71146847 70892 RS-40 1 38736U 12041D 13255.09127304 .00000010 00000-0 00000+0 0 3711 2 38736 082.4755 100.9488 0021732 134.7883 225.4973 12.42870764 51042 PROITERES 1 38756U 12047B 13255.73557497 .00000366 00000-0 63284-4 0 1215 2 38756 098.2477 334.3679 0012328 181.4147 178.7027 14.74326081 54293 RAIKO 1 38852U 98067CN 13218.07382584 .24681979 12625-4 36599-3 0 3409 2 38852 051.6160 184.0336 0004489 261.9162 100.6538 16.48474690 47849 FITSAT 1 1 38853U 98067CP 13184.86912902 .06638326 12312-4 50483-3 0 3153 2 38853 051.6252 351.6077 0011722 245.9321 114.2104 16.39337660 42708 TechEdSat 1 38854U 98067CQ 13124.93253577 .11592855 12481-4 94246-3 0 2908 2 38854 051.6449 297.0261 0010505 310.8629 049.0629 16.38844728 33294 F 1 1 38855U 98067CR 13129.77714356 .27424026 12535-4 30797-3 0 2871 2 38855 051.5085 272.4145 0008326 194.2908 166.5495 16.49710473 33949 WeWish 1 38856U 98067CS 13069.98095549 .16701328 12537-4 10063-2 0 2487 2 38856 051.6166 215.0521 0008325 316.0438 044.8765 16.41348316 24586 OSSI-1 1 39131U 13015B 13188.41684431 .01502874 74059-5 44818-3 0 85 2 39131 064.8841 114.8425 0051126 026.6892 350.0589 16.22925119 12374 BEESAT-3 1 39134U 13015E 13255.60562485 .00002151 00000-0 18105-3 0 3498 2 39134 064.8775 293.9152 0003242 223.1372 267.4520 15.00917863 21943 BEESAT-2 1 39136U 13015G 13255.60926799 .00001936 00000-0 16469-3 0 3437 2 39136 064.8778 293.9311 0003331 219.3699 272.6575 15.00828186 21940 /EX